Miscellaneous Local Product
Issued by NWS Hastings, NE

Home | Current Version | Previous Version | Graphics & Text | Print | Product List | Glossary On
Versions: 1 2 3 4 5 6 7 8 9 10 11 12 13 14 15 16 17 18 19 20 21 22 23 24 25 26 27 28 29 30 31 32 33 34 35 36 37 38 39 40 41 42 43 44 45 46 47 48 49 50
000
AXUS43 KGID 241502
MISGRI

GID CWA HOURLY WEATHER ROUNDUP
NATIONAL WEATHER SERVICE HASTINGS NE
900 AM CST SAT FEB 24 2018

NOTE: "FAIR" INDICATES FEW OR NO CLOUDS BELOW 12,000 FEET WITH NO
SIGNIFICANT WEATHER AND/OR OBSTRUCTIONS TO VISIBILITY.

...SOUTH CENTRAL NEBRASKA...

CITY           SKY/WX    TMP DP  RH WIND       PRES   REMARKS
GRAND ISLAND   LGT SNOW  20  18  92 NE7       29.93F VSB 1   WCI  11
KEARNEY        FLURRIES  21  19  92 SE5       29.92R WCI  15
HASTINGS       LGT SNOW  20  18  92 NE7       29.92F FOG     WCI  11
ORD            CLOUDY    18  16  92 CALM      29.90F FOG
YORK           LGT SNOW  21  21 100 CALM      29.95S VSB 3/4
AURORA         MIX PCPN N/A N/A N/A N3        29.94F
LEXINGTON      LGT SNOW  24  22  92 S5        29.88F WCI  18
HOLDREGE       CLOUDY    22  22  98 SE3       29.90F
HEBRON         MIX PCPN  26  26  96 NE5       29.93F WCI  21

...NEBRASKA PANHANDLE...

CITY           SKY/WX    TMP DP  RH WIND       PRES   REMARKS
CHADRON        MOSUNNY   12  10  92 SW8       29.78R WCI   0
ALLIANCE       MOSUNNY   19  17  92 W9        29.74F WCI   8
SCOTTSBLUFF    SUNNY     16  14  92 NW13      29.79R FOG     WCI   2
SIDNEY         MOSUNNY   23  15  71 W18       29.76F WCI   9

...WESTERN AND NORTH CENTRAL NEBRASKA...

CITY           SKY/WX    TMP DP  RH WIND       PRES   REMARKS
VALENTINE      SNOW      18  14  84 E3        29.82F VSB 1/2
AINSWORTH      LGT SNOW  17  16  96 SE6       29.84F WCI   8
ONEILL         LGT SNOW  12  11  95 CALM      29.91F
BROKEN BOW     CLOUDY    22  18  85 SE6       29.86F WCI  14
IMPERIAL       CLOUDY    23  22  96 S7        29.81S WCI  15
NORTH PLATTE   CLOUDY    22  19  89 S6        29.84F FOG     WCI  14
MCCOOK         SNOW      24  24 100 SE5       29.86F VSB 1/2 WCI  18

...EASTERN NEBRASKA...

CITY           SKY/WX    TMP DP  RH WIND       PRES   REMARKS
NORFOLK        LGT SNOW  20  19  96 VRB3      29.94F VSB 3/4
SO SIOUX CITY  LGT SNOW  21  18  88 NE6       30.00F FOG     WCI  13
TEKAMAH        MIX PCPN  24  21  88 N5        29.97F FOG     WCI  18
COLUMBUS       SNOW      21  19  92 CALM      29.96S VSB 1/2
ALBION         LGT SNOW  20  18  92 CALM      29.94F
OMAHA EPPLEY   FRZ DRZL  27  24  89 CALM      29.97R VSB 1
OFFUTT AFB     FRZ RAIN  27  26  97 CALM      29.95F FOG
MILLARD        MIX PCPN  28  26  93 CALM      29.97S VSB 3/4
LINCOLN        FRZ RAIN  25  24  96 CALM      29.97F VSB 1
NEBRASKA CITY  MIX PCPN  28  28 100 CALM      29.96R VSB 1
BEATRICE       CLOUDY    29  29  98 CALM      29.93F FOG
FALLS CITY     FOG       30  29  96 E6        29.93F VSB 1   WCI  24

...NORTHERN KANSAS...

CITY           SKY/WX    TMP DP  RH WIND       PRES   REMARKS
GOODLAND       LGT SNOW  26  24  92 SW7       29.79F FOG     WCI  18
HILL CITY      FOG       27  27 100 NE3       29.88F VSB 1/4
NORTON         CLOUDY    25  21  86 CALM      29.88F FOG
PHILLIPSBURG   CLOUDY    27  27 100 CALM      29.91F FOG
SMITH CENTER   CLOUDY    25  23  93 CALM      29.91F FOG
BELOIT         CLOUDY    27  27 100 CALM      29.90F FOG
HAYS           CLOUDY    29  28  96 N6        29.86F FOG     WCI  23
RUSSELL        CLOUDY    31  30  96 N5        29.85F FOG     WCI  26
CONCORDIA      CLOUDY    28  27  96 NE7       29.87F FOG     WCI  21
SALINA         CLOUDY    33  32  96 N10       29.86F FOG     WCI  25
TOPEKA         CLOUDY    35  35 100 N3        29.89F FOG



USA.gov is the U.S. government's official web portal to all federal, state and local government web resources and services.